owner,sensor,date,latitude,longitude,vertical_datum,direction_of_sea_water_velocity,sea_water_speed,upward_sea_water_velocity,qcFlag 
TABS,ioos:station:wmo:42051:1,2009-11-01T00:00:00Z,29.6350,-93.6417,2.0,218.445519,5.017897966,-99999.0,'11133222,11111222,99999999' 
TABS,ioos:station:wmo:42051:1,2009-11-01T00:30:00Z,29.6350,-93.6417,2.0,184.4512692,10.82264755,-99999.0,'11111222,11111222,99999999' 
TABS,ioos:station:wmo:42051:1,2009-11-01T01:00:00Z,29.6350,-93.6417,2.0,220.5840729,3.673717463,-99999.0,'11133222,11111222,99999999' 
TABS,ioos:station:wmo:42051:1,2009-11-01T01:30:00Z,29.6350,-93.6417,2.0,162.308064,5.363674114,-99999.0,'11133222,11111222,99999999' 
TABS,ioos:station:wmo:42051:1,2009-11-01T02:00:00Z,29.6350,-93.6417,2.0,331.3225061,3.396660124,-99999.0,'11133222,11111222,99999999' 
TABS,ioos:station:wmo:42051:1,2009-11-01T02:30:00Z,29.6350,-93.6417,2.0,167.739619,5.321362607,-99999.0,'11133222,11111222,99999999' 
TABS,ioos:station:wmo:42051:1,2009-11-01T03:00:00Z,29.6350,-93.6417,2.0,270.0004209,1.52,-99999.0,'11133222,11111222,99999999' 
TABS,ioos:station:wmo:42051:1,2009-11-01T03:30:00Z,29.6350,-93.6417,2.0,269.5130036,4.710169848,-99999.0,'11133222,11111222,99999999' 
TABS,ioos:station:wmo:42051:1,2009-11-01T04:00:00Z,29.6350,-93.6417,2.0,257.734834,10.12099797,-99999.0,'11111222,11111222,99999999' 
TABS,ioos:station:wmo:42051:1,2009-11-01T04:30:00Z,29.6350,-93.6417,2.0,230.2362888,15.64995208,-99999.0,'11111222,11111222,99999999' 
TABS,ioos:station:wmo:42051:1,2009-11-01T05:00:00Z,29.6350,-93.6417,2.0,288.8713581,10.38838293,-99999.0,'11111222,11111222,99999999' 
TABS,ioos:station:wmo:42051:1,2009-11-01T05:30:00Z,29.6350,-93.6417,2.0,257.5729567,13.38354587,-99999.0,'11111222,11111222,99999999' 
TABS,ioos:station:wmo:42051:1,2009-11-01T06:00:00Z,29.6350,-93.6417,2.0,289.0041045,21.34326357,-99999.0,'11111222,11111222,99999999' 
TABS,ioos:station:wmo:42051:1,2009-11-01T06:30:00Z,29.6350,-93.6417,2.0,297.9845816,23.29355705,-99999.0,'11111222,11111222,99999999' 
TABS,ioos:station:wmo:42051:1,2009-11-01T07:00:00Z,29.6350,-93.6417,2.0,280.8211551,22.05210194,-99999.0,'11111222,11111222,99999999' 
TABS,ioos:station:wmo:42051:1,2009-11-01T07:30:00Z,29.6350,-93.6417,2.0,283.0658404,20.61363626,-99999.0,'11111222,11111222,99999999' 
TABS,ioos:station:wmo:42051:1,2009-11-01T08:00:00Z,29.6350,-93.6417,2.0,276.7306734,16.38289657,-99999.0,'11111222,11111222,99999999' 
TABS,ioos:station:wmo:42051:1,2009-11-01T08:30:00Z,29.6350,-93.6417,2.0,270.4994203,12.63047901,-99999.0,'11111222,11111222,99999999' 
TABS,ioos:station:wmo:42051:1,2009-11-01T09:00:00Z,29.6350,-93.6417,2.0,264.6865625,8.747582523,-99999.0,'11133222,11111222,99999999' 
TABS,ioos:station:wmo:42051:1,2009-11-01T09:30:00Z,29.6350,-93.6417,2.0,275.0890159,11.27443568,-99999.0,'11111222,11111222,99999999' 
TABS,ioos:station:wmo:42051:1,2009-11-01T10:00:00Z,29.6350,-93.6417,2.0,264.0042063,8.808178018,-99999.0,'11133222,11111222,99999999' 
TABS,ioos:station:wmo:42051:1,2009-11-01T10:30:00Z,29.6350,-93.6417,2.0,237.6489347,9.848619193,-99999.0,'11133222,11111222,99999999' 
TABS,ioos:station:wmo:42051:1,2009-11-01T11:00:00Z,29.6350,-93.6417,2.0,268.6939215,10.53273469,-99999.0,'11111222,11111222,99999999' 
TABS,ioos:station:wmo:42051:1,2009-11-01T11:30:00Z,29.6350,-93.6417,2.0,273.4076826,8.244573973,-99999.0,'11133222,11111222,99999999' 
TABS,ioos:station:wmo:42051:1,2009-11-01T12:00:00Z,29.6350,-93.6417,2.0,251.1728629,6.011630394,-99999.0,'11133222,11111222,99999999' 
TABS,ioos:station:wmo:42051:1,2009-11-01T12:30:00Z,29.6350,-93.6417,2.0,236.0620054,15.40416827,-99999.0,'11111222,11111222,99999999' 
TABS,ioos:station:wmo:42051:1,2009-11-01T13:00:00Z,29.6350,-93.6417,2.0,293.0575255,9.574894255,-99999.0,'11133222,11111222,99999999' 
TABS,ioos:station:wmo:42051:1,2009-11-01T13:30:00Z,29.6350,-93.6417,2.0,268.2189408,13.51652692,-99999.0,'11111222,11111222,99999999' 
TABS,ioos:station:wmo:42051:1,2009-11-01T14:00:00Z,29.6350,-93.6417,2.0,303.7153262,12.75533222,-99999.0,'11111222,11111222,99999999' 
TABS,ioos:station:wmo:42051:1,2009-11-01T14:30:00Z,29.6350,-93.6417,2.0,312.0660147,15.19443319,-99999.0,'11111222,11111222,99999999' 
TABS,ioos:station:wmo:42051:1,2009-11-01T15:00:00Z,29.6350,-93.6417,2.0,303.0290873,19.7042635,-99999.0,'11111222,11111222,99999999' 
TABS,ioos:station:wmo:42051:1,2009-11-01T15:30:00Z,29.6350,-93.6417,2.0,298.7465637,20.21080899,-99999.0,'11111222,11111222,99999999' 
TABS,ioos:station:wmo:42051:1,2009-11-01T16:00:00Z,29.6350,-93.6417,2.0,315.9436834,15.89084328,-99999.0,'11111222,11111222,99999999' 
TABS,ioos:station:wmo:42051:1,2009-11-01T16:30:00Z,29.6350,-93.6417,2.0,313.4417982,16.89903252,-99999.0,'11111222,11111222,99999999' 
TABS,ioos:station:wmo:42051:1,2009-11-01T17:00:00Z,29.6350,-93.6417,2.0,305.7672256,18.59744606,-99999.0,'11111222,11111222,99999999' 
TABS,ioos:station:wmo:42051:1,2009-11-01T17:30:00Z,29.6350,-93.6417,2.0,302.8582313,18.52339332,-99999.0,'11111222,11111222,99999999' 
TABS,ioos:station:wmo:42051:1,2009-11-01T18:00:00Z,29.6350,-93.6417,2.0,317.3658544,19.01616418,-99999.0,'11111222,11111222,99999999' 
TABS,ioos:station:wmo:42051:1,2009-11-01T18:30:00Z,29.6350,-93.6417,2.0,314.3315253,18.17388236,-99999.0,'11111222,11111222,99999999' 
TABS,ioos:station:wmo:42051:1,2009-11-01T19:00:00Z,29.6350,-93.6417,2.0,319.6944127,19.35479269,-99999.0,'11111222,11111222,99999999' 
TABS,ioos:station:wmo:42051:1,2009-11-01T19:30:00Z,29.6350,-93.6417,2.0,321.5555548,19.13922935,-99999.0,'11111222,11111222,99999999' 
TABS,ioos:station:wmo:42051:1,2009-11-01T20:00:00Z,29.6350,-93.6417,2.0,340.9351055,13.22544517,-99999.0,'11111222,11111222,99999999' 
TABS,ioos:station:wmo:42051:1,2009-11-01T20:30:00Z,29.6350,-93.6417,2.0,322.3870214,10.9449212,-99999.0,'11111222,11111222,99999999' 
TABS,ioos:station:wmo:42051:1,2009-11-01T21:00:00Z,29.6350,-93.6417,2.0,326.3269406,9.504788267,-99999.0,'11133222,11111222,99999999' 
TABS,ioos:station:wmo:42051:1,2009-11-01T21:30:00Z,29.6350,-93.6417,2.0,314.696708,9.341011723,-99999.0,'11133222,11111222,99999999' 
TABS,ioos:station:wmo:42051:1,2009-11-01T22:00:00Z,29.6350,-93.6417,2.0,341.4262379,5.211448935,-99999.0,'11133222,11111222,99999999' 
TABS,ioos:station:wmo:42051:1,2009-11-01T22:30:00Z,29.6350,-93.6417,2.0,336.0502725,9.311739902,-99999.0,'11133222,11111222,99999999' 
TABS,ioos:station:wmo:42051:1,2009-11-01T23:00:00Z,29.6350,-93.6417,2.0,340.222007,8.363360569,-99999.0,'11133222,11111222,99999999' 
TABS,ioos:station:wmo:42051:1,2009-11-01T23:30:00Z,29.6350,-93.6417,2.0,346.3107674,12.42290224,-99999.0,'11111222,11111222,99999999' 
TABS,ioos:station:wmo:42051:1,2009-11-02T00:00:00Z,29.6350,-93.6417,2.0,3.258780443,6.861093207,-99999.0,'11133222,11111222,99999999' 
TABS,ioos:station:wmo:42051:1,2009-11-02T00:30:00Z,29.6350,-93.6417,2.0,343.4277021,13.42779952,-99999.0,'11111222,11111222,99999999' 
TABS,ioos:station:wmo:42051:1,2009-11-02T01:00:00Z,29.6350,-93.6417,2.0,3.246889175,6.179919093,-99999.0,'11133222,11111222,99999999' 
TABS,ioos:station:wmo:42051:1,2009-11-02T01:30:00Z,29.6350,-93.6417,2.0,347.7526785,14.14186692,-99999.0,'11111222,11111222,99999999' 
TABS,ioos:station:wmo:42051:1,2009-11-02T02:00:00Z,29.6350,-93.6417,2.0,14.14597287,3.805390913,-99999.0,'11133222,11111222,99999999' 
TABS,ioos:station:wmo:42051:1,2009-11-02T02:30:00Z,29.6350,-93.6417,2.0,352.5506227,6.787289592,-99999.0,'11133222,11111222,99999999' 
TABS,ioos:station:wmo:42051:1,2009-11-02T03:00:00Z,29.6350,-93.6417,2.0,354.9577712,5.461135413,-99999.0,'11133222,11111222,99999999' 
TABS,ioos:station:wmo:42051:1,2009-11-02T03:30:00Z,29.6350,-93.6417,2.0,49.74556784,5.555690776,-99999.0,'11133222,11111222,99999999' 
TABS,ioos:station:wmo:42051:1,2009-11-02T04:00:00Z,29.6350,-93.6417,2.0,55.91713299,4.853740825,-99999.0,'11133222,11111222,99999999' 
TABS,ioos:station:wmo:42051:1,2009-11-02T04:30:00Z,29.6350,-93.6417,2.0,59.47036549,4.074923312,-99999.0,'11133222,11111222,99999999' 
TABS,ioos:station:wmo:42051:1,2009-11-02T05:00:00Z,29.6350,-93.6417,2.0,234.430486,2.114544868,-99999.0,'11133222,11111222,99999999' 
TABS,ioos:station:wmo:42051:1,2009-11-02T05:30:00Z,29.6350,-93.6417,2.0,47.98155948,2.718970393,-99999.0,'11133222,11111222,99999999' 
TABS,ioos:station:wmo:42051:1,2009-11-02T06:00:00Z,29.6350,-93.6417,2.0,14.80300724,3.444314155,-99999.0,'11133222,11111222,99999999' 
TABS,ioos:station:wmo:42051:1,2009-11-02T06:30:00Z,29.6350,-93.6417,2.0,39.76488542,8.98947162,-99999.0,'11133222,11111222,99999999' 
TABS,ioos:station:wmo:42051:1,2009-11-02T07:00:00Z,29.6350,-93.6417,2.0,99.85553787,4.790699323,-99999.0,'11133222,11111222,99999999' 
TABS,ioos:station:wmo:42051:1,2009-11-02T07:30:00Z,29.6350,-93.6417,2.0,89.09510947,10.13126349,-99999.0,'11111222,11111222,99999999' 
TABS,ioos:station:wmo:42051:1,2009-11-02T08:00:00Z,29.6350,-93.6417,2.0,113.1635145,4.296347286,-99999.0,'11133222,11111222,99999999' 
TABS,ioos:station:wmo:42051:1,2009-11-02T08:30:00Z,29.6350,-93.6417,2.0,183.8652417,6.675185391,-99999.0,'11133222,11111222,99999999' 
TABS,ioos:station:wmo:42051:1,2009-11-02T09:00:00Z,29.6350,-93.6417,2.0,165.1880084,5.554574691,-99999.0,'11133222,11111222,99999999' 
TABS,ioos:station:wmo:42051:1,2009-11-02T09:30:00Z,29.6350,-93.6417,2.0,173.4338045,13.73005827,-99999.0,'11111222,11111222,99999999' 
TABS,ioos:station:wmo:42051:1,2009-11-02T10:00:00Z,29.6350,-93.6417,2.0,171.9820634,12.25984095,-99999.0,'11111222,11111222,99999999' 
TABS,ioos:station:wmo:42051:1,2009-11-02T10:30:00Z,29.6350,-93.6417,2.0,198.8022318,8.873533682,-99999.0,'11133222,11111222,99999999' 
TABS,ioos:station:wmo:42051:1,2009-11-02T11:00:00Z,29.6350,-93.6417,2.0,204.5590305,9.455416437,-99999.0,'11133222,11111222,99999999' 
TABS,ioos:station:wmo:42051:1,2009-11-02T11:30:00Z,29.6350,-93.6417,2.0,201.706327,8.97652494,-99999.0,'11133222,11111222,99999999' 
TABS,ioos:station:wmo:42051:1,2009-11-02T12:00:00Z,29.6350,-93.6417,2.0,209.3290882,7.696557672,-99999.0,'11133222,11111222,99999999' 
TABS,ioos:station:wmo:42051:1,2009-11-02T12:30:00Z,29.6350,-93.6417,2.0,211.9181452,9.778491704,-99999.0,'11133222,11111222,99999999' 
TABS,ioos:station:wmo:42051:1,2009-11-02T13:00:00Z,29.6350,-93.6417,2.0,231.8660981,9.522315895,-99999.0,'11133222,11111222,99999999' 
TABS,ioos:station:wmo:42051:1,2009-11-02T13:30:00Z,29.6350,-93.6417,2.0,235.5222436,9.486269024,-99999.0,'11133222,11111222,99999999' 
TABS,ioos:station:wmo:42051:1,2009-11-02T14:00:00Z,29.6350,-93.6417,2.0,264.2889993,6.230922885,-99999.0,'11133222,11111222,99999999' 
TABS,ioos:station:wmo:42051:1,2009-11-02T14:30:00Z,29.6350,-93.6417,2.0,243.9488455,8.470566687,-99999.0,'11133222,11111222,99999999' 
TABS,ioos:station:wmo:42051:1,2009-11-02T15:00:00Z,29.6350,-93.6417,2.0,263.1392858,7.785743381,-99999.0,'11133222,11111222,99999999' 
TABS,ioos:station:wmo:42051:1,2009-11-02T15:30:00Z,29.6350,-93.6417,2.0,235.9537213,11.61009905,-99999.0,'11111222,11111222,99999999' 
TABS,ioos:station:wmo:42051:1,2009-11-02T16:00:00Z,29.6350,-93.6417,2.0,266.3173136,12.14507308,-99999.0,'11111222,11111222,99999999' 
TABS,ioos:station:wmo:42051:1,2009-11-02T16:30:00Z,29.6350,-93.6417,2.0,266.7895015,17.85802061,-99999.0,'11111222,11111222,99999999' 
TABS,ioos:station:wmo:42051:1,2009-11-02T17:00:00Z,29.6350,-93.6417,2.0,286.0387628,22.00656493,-99999.0,'11111222,11111222,99999999' 
TABS,ioos:station:wmo:42051:1,2009-11-02T17:30:00Z,29.6350,-93.6417,2.0,277.6408098,23.16566425,-99999.0,'11111222,11111222,99999999' 
TABS,ioos:station:wmo:42051:1,2009-11-02T18:00:00Z,29.6350,-93.6417,2.0,283.1143545,24.10873908,-99999.0,'11111222,11111222,99999999' 
TABS,ioos:station:wmo:42051:1,2009-11-02T18:30:00Z,29.6350,-93.6417,2.0,287.4011598,21.20020047,-99999.0,'11111222,11111222,99999999' 
TABS,ioos:station:wmo:42051:1,2009-11-02T19:00:00Z,29.6350,-93.6417,2.0,289.3379637,23.88764744,-99999.0,'11111222,11111222,99999999' 
TABS,ioos:station:wmo:42051:1,2009-11-02T19:30:00Z,29.6350,-93.6417,2.0,282.8489727,22.3496085,-99999.0,'11111222,11111222,99999999' 
TABS,ioos:station:wmo:42051:1,2009-11-02T20:00:00Z,29.6350,-93.6417,2.0,276.3791919,22.95209359,-99999.0,'11111222,11111222,99999999' 
TABS,ioos:station:wmo:42051:1,2009-11-02T20:30:00Z,29.6350,-93.6417,2.0,281.7145516,20.29264152,-99999.0,'11111222,11111222,99999999' 
TABS,ioos:station:wmo:42051:1,2009-11-02T21:00:00Z,29.6350,-93.6417,2.0,290.7555418,20.54318622,-99999.0,'11111222,11111222,99999999' 
TABS,ioos:station:wmo:42051:1,2009-11-02T21:30:00Z,29.6350,-93.6417,2.0,288.23167,16.01387523,-99999.0,'11111222,11111222,99999999' 
TABS,ioos:station:wmo:42051:1,2009-11-02T22:00:00Z,29.6350,-93.6417,2.0,297.673357,13.41444371,-99999.0,'11111222,11111222,99999999' 
TABS,ioos:station:wmo:42051:1,2009-11-02T22:30:00Z,29.6350,-93.6417,2.0,288.2391094,9.233904916,-99999.0,'11133222,11111222,99999999' 
TABS,ioos:station:wmo:42051:1,2009-11-02T23:00:00Z,29.6350,-93.6417,2.0,275.3934666,8.618149453,-99999.0,'11133222,11111222,99999999' 
TABS,ioos:station:wmo:42051:1,2009-11-02T23:30:00Z,29.6350,-93.6417,2.0,261.6318317,8.86436687,-99999.0,'11133222,11111222,99999999' 
TABS,ioos:station:wmo:42051:1,2009-11-03T00:00:00Z,29.6350,-93.6417,2.0,290.2359099,15.90145905,-99999.0,'11111222,11111222,99999999' 
TABS,ioos:station:wmo:42051:1,2009-11-03T00:30:00Z,29.6350,-93.6417,2.0,203.2211437,3.297104791,-99999.0,'11133222,11111222,99999999' 
TABS,ioos:station:wmo:42051:1,2009-11-03T01:00:00Z,29.6350,-93.6417,2.0,251.440208,4.367115753,-99999.0,'11133222,11111222,99999999' 
TABS,ioos:station:wmo:42051:1,2009-11-03T01:30:00Z,29.6350,-93.6417,2.0,177.5591573,12.21107694,-99999.0,'11111222,11111222,99999999' 
TABS,ioos:station:wmo:42051:1,2009-11-03T02:00:00Z,29.6350,-93.6417,2.0,145.0288694,2.233226366,-99999.0,'11133222,11111222,99999999' 
TABS,ioos:station:wmo:42051:1,2009-11-03T02:30:00Z,29.6350,-93.6417,2.0,138.311921,6.119624171,-99999.0,'11133222,11111222,99999999' 
TABS,ioos:station:wmo:42051:1,2009-11-03T03:00:00Z,29.6350,-93.6417,2.0,113.9205604,4.167997121,-99999.0,'11133222,11111222,99999999' 
TABS,ioos:station:wmo:42051:1,2009-11-03T03:30:00Z,29.6350,-93.6417,2.0,170.668033,7.215490281,-99999.0,'11133222,11111222,99999999' 
TABS,ioos:station:wmo:42051:1,2009-11-03T04:00:00Z,29.6350,-93.6417,2.0,227.5788258,2.357053245,-99999.0,'11133222,11111222,99999999' 
TABS,ioos:station:wmo:42051:1,2009-11-03T04:30:00Z,29.6350,-93.6417,2.0,144.4621949,10.49483683,-99999.0,'11111222,11111222,99999999' 
TABS,ioos:station:wmo:42051:1,2009-11-03T05:00:00Z,29.6350,-93.6417,2.0,206.0197711,3.761236499,-99999.0,'11133222,11111222,99999999' 
TABS,ioos:station:wmo:42051:1,2009-11-03T05:30:00Z,29.6350,-93.6417,2.0,165.3555111,12.34090758,-99999.0,'11111222,11111222,99999999' 
TABS,ioos:station:wmo:42051:1,2009-11-03T06:00:00Z,29.6350,-93.6417,2.0,183.5761156,1.122185368,-99999.0,'11133222,11111222,99999999' 
TABS,ioos:station:wmo:42051:1,2009-11-03T06:30:00Z,29.6350,-93.6417,2.0,197.8487664,7.112334357,-99999.0,'11133222,11111222,99999999' 
TABS,ioos:station:wmo:42051:1,2009-11-03T07:00:00Z,29.6350,-93.6417,2.0,253.665913,4.053603335,-99999.0,'11133222,11111222,99999999' 
TABS,ioos:station:wmo:42051:1,2009-11-03T07:30:00Z,29.6350,-93.6417,2.0,188.3849959,12.06901819,-99999.0,'11111222,11111222,99999999' 
TABS,ioos:station:wmo:42051:1,2009-11-03T08:00:00Z,29.6350,-93.6417,2.0,218.8465945,7.652555129,-99999.0,'11133222,11111222,99999999' 
TABS,ioos:station:wmo:42051:1,2009-11-03T08:30:00Z,29.6350,-93.6417,2.0,221.1756505,5.407263633,-99999.0,'11133222,11111222,99999999' 
TABS,ioos:station:wmo:42051:1,2009-11-03T09:00:00Z,29.6350,-93.6417,2.0,236.3095903,10.20371011,-99999.0,'11111222,11111222,99999999' 
TABS,ioos:station:wmo:42051:1,2009-11-03T09:30:00Z,29.6350,-93.6417,2.0,185.0528987,11.01280164,-99999.0,'11111222,11111222,99999999' 
TABS,ioos:station:wmo:42051:1,2009-11-03T10:00:00Z,29.6350,-93.6417,2.0,265.3163258,7.103717337,-99999.0,'11133222,11111222,99999999' 
TABS,ioos:station:wmo:42051:1,2009-11-03T10:30:00Z,29.6350,-93.6417,2.0,210.417581,7.92016414,-99999.0,'11133222,11111222,99999999' 
TABS,ioos:station:wmo:42051:1,2009-11-03T11:00:00Z,29.6350,-93.6417,2.0,223.3595083,6.423161215,-99999.0,'11133222,11111222,99999999' 
TABS,ioos:station:wmo:42051:1,2009-11-03T11:30:00Z,29.6350,-93.6417,2.0,202.4731032,9.025414118,-99999.0,'11133222,11111222,99999999' 
TABS,ioos:station:wmo:42051:1,2009-11-03T12:00:00Z,29.6350,-93.6417,2.0,240.1071936,7.70506327,-99999.0,'11133222,11111222,99999999' 
TABS,ioos:station:wmo:42051:1,2009-11-03T12:30:00Z,29.6350,-93.6417,2.0,228.977177,11.21343837,-99999.0,'11111222,11111222,99999999' 
TABS,ioos:station:wmo:42051:1,2009-11-03T13:00:00Z,29.6350,-93.6417,2.0,203.2463293,10.97065632,-99999.0,'11111222,11111222,99999999' 
TABS,ioos:station:wmo:42051:1,2009-11-03T13:30:00Z,29.6350,-93.6417,2.0,246.9318316,7.477920834,-99999.0,'11133222,11111222,99999999' 
TABS,ioos:station:wmo:42051:1,2009-11-03T14:00:00Z,29.6350,-93.6417,2.0,249.341744,8.560403028,-99999.0,'11133222,11111222,99999999' 
TABS,ioos:station:wmo:42051:1,2009-11-03T14:30:00Z,29.6350,-93.6417,2.0,264.2645835,7.005062455,-99999.0,'11133222,11111222,99999999' 
TABS,ioos:station:wmo:42051:1,2009-11-03T15:00:00Z,29.6350,-93.6417,2.0,276.658294,10.95387146,-99999.0,'11111222,11111222,99999999' 
TABS,ioos:station:wmo:42051:1,2009-11-03T15:30:00Z,29.6350,-93.6417,2.0,265.9104219,11.49927389,-99999.0,'11111222,11111222,99999999' 
TABS,ioos:station:wmo:42051:1,2009-11-03T16:00:00Z,29.6350,-93.6417,2.0,272.4101116,9.037992034,-99999.0,'11133222,11111222,99999999' 
TABS,ioos:station:wmo:42051:1,2009-11-03T16:30:00Z,29.6350,-93.6417,2.0,261.1475957,8.6429451,-99999.0,'11133222,11111222,99999999' 
TABS,ioos:station:wmo:42051:1,2009-11-03T17:00:00Z,29.6350,-93.6417,2.0,265.6110735,12.9379326,-99999.0,'11111222,11111222,99999999' 
TABS,ioos:station:wmo:42051:1,2009-11-03T17:30:00Z,29.6350,-93.6417,2.0,233.2568384,17.13404214,-99999.0,'11111222,11111222,99999999' 
TABS,ioos:station:wmo:42051:1,2009-11-03T18:00:00Z,29.6350,-93.6417,2.0,285.5065647,18.81482926,-99999.0,'11111222,11111222,99999999' 
TABS,ioos:station:wmo:42051:1,2009-11-03T18:30:00Z,29.6350,-93.6417,2.0,256.16238,20.9479283,-99999.0,'11111222,11111222,99999999' 
TABS,ioos:station:wmo:42051:1,2009-11-03T19:00:00Z,29.6350,-93.6417,2.0,275.0297377,17.90895028,-99999.0,'11111222,11111222,99999999' 
TABS,ioos:station:wmo:42051:1,2009-11-03T19:30:00Z,29.6350,-93.6417,2.0,255.4412703,22.35786215,-99999.0,'11111222,11111222,99999999' 
TABS,ioos:station:wmo:42051:1,2009-11-03T20:00:00Z,29.6350,-93.6417,2.0,272.1919867,21.96606701,-99999.0,'11111222,11111222,99999999' 
TABS,ioos:station:wmo:42051:1,2009-11-03T20:30:00Z,29.6350,-93.6417,2.0,261.1582941,24.72377196,-99999.0,'11111222,11111222,99999999' 
TABS,ioos:station:wmo:42051:1,2009-11-03T21:00:00Z,29.6350,-93.6417,2.0,284.4255981,35.72632083,-99999.0,'11111222,11111222,99999999' 
TABS,ioos:station:wmo:42051:1,2009-11-03T21:30:00Z,29.6350,-93.6417,2.0,286.1333559,34.40488483,-99999.0,'11111222,11111222,99999999' 
TABS,ioos:station:wmo:42051:1,2009-11-03T22:00:00Z,29.6350,-93.6417,2.0,293.3099297,31.1853363,-99999.0,'11111222,11111222,99999999' 
TABS,ioos:station:wmo:42051:1,2009-11-03T22:30:00Z,29.6350,-93.6417,2.0,288.0422335,31.80377493,-99999.0,'11111222,11111222,99999999' 
TABS,ioos:station:wmo:42051:1,2009-11-03T23:00:00Z,29.6350,-93.6417,2.0,287.281439,27.63758673,-99999.0,'11111222,11111222,99999999' 
TABS,ioos:station:wmo:42051:1,2009-11-03T23:30:00Z,29.6350,-93.6417,2.0,288.0078092,25.00482553,-99999.0,'11111222,11111222,99999999' 
TABS,ioos:station:wmo:42051:1,2009-11-04T00:00:00Z,29.6350,-93.6417,2.0,295.9817733,26.34224744,-99999.0,'11111222,11111222,99999999' 
TABS,ioos:station:wmo:42051:1,2009-11-04T00:30:00Z,29.6350,-93.6417,2.0,292.0221886,19.30874413,-99999.0,'11111222,11111222,99999999' 
TABS,ioos:station:wmo:42051:1,2009-11-04T01:00:00Z,29.6350,-93.6417,2.0,302.5423951,15.50420911,-99999.0,'11111222,11111222,99999999' 
TABS,ioos:station:wmo:42051:1,2009-11-04T01:30:00Z,29.6350,-93.6417,2.0,285.2227636,15.34851784,-99999.0,'11111222,11111222,99999999' 
TABS,ioos:station:wmo:42051:1,2009-11-04T02:00:00Z,29.6350,-93.6417,2.0,289.7461801,13.40840408,-99999.0,'11111222,11111222,99999999' 
TABS,ioos:station:wmo:42051:1,2009-11-04T02:30:00Z,29.6350,-93.6417,2.0,270.2406528,4.770041929,-99999.0,'11133222,11111222,99999999' 
TABS,ioos:station:wmo:42051:1,2009-11-04T03:00:00Z,29.6350,-93.6417,2.0,285.5156741,6.953387664,-99999.0,'11133222,11111222,99999999' 
TABS,ioos:station:wmo:42051:1,2009-11-04T03:30:00Z,29.6350,-93.6417,2.0,188.6425719,1.264357544,-99999.0,'11133222,11111222,99999999' 
TABS,ioos:station:wmo:42051:1,2009-11-04T04:00:00Z,29.6350,-93.6417,2.0,269.1262375,3.280381075,-99999.0,'11133222,11111222,99999999' 
TABS,ioos:station:wmo:42051:1,2009-11-04T04:30:00Z,29.6350,-93.6417,2.0,141.8333161,3.44688265,-99999.0,'11133222,11111222,99999999' 
TABS,ioos:station:wmo:42051:1,2009-11-04T05:00:00Z,29.6350,-93.6417,2.0,12.86728451,2.020742438,-99999.0,'11133222,11111222,99999999' 
TABS,ioos:station:wmo:42051:1,2009-11-04T05:30:00Z,29.6350,-93.6417,2.0,324.8600088,2.849298159,-99999.0,'11133222,11111222,99999999' 
TABS,ioos:station:wmo:42051:1,2009-11-04T06:00:00Z,29.6350,-93.6417,2.0,186.7533478,3.061241578,-99999.0,'11133222,11111222,99999999' 
TABS,ioos:station:wmo:42051:1,2009-11-04T06:30:00Z,29.6350,-93.6417,2.0,150.8984984,10.71231534,-99999.0,'11111222,11111222,99999999' 
TABS,ioos:station:wmo:42051:1,2009-11-04T07:00:00Z,29.6350,-93.6417,2.0,176.5524108,4.989027961,-99999.0,'11133222,11111222,99999999' 
TABS,ioos:station:wmo:42051:1,2009-11-04T07:30:00Z,29.6350,-93.6417,2.0,183.2937468,8.35380153,-99999.0,'11133222,11111222,99999999' 
TABS,ioos:station:wmo:42051:1,2009-11-04T08:00:00Z,29.6350,-93.6417,2.0,211.6820815,6.016643583,-99999.0,'11133222,11111222,99999999' 
TABS,ioos:station:wmo:42051:1,2009-11-04T08:30:00Z,29.6350,-93.6417,2.0,198.0584628,6.742121328,-99999.0,'11133222,11111222,99999999' 
TABS,ioos:station:wmo:42051:1,2009-11-04T09:00:00Z,29.6350,-93.6417,2.0,213.2345788,10.47307023,-99999.0,'11111222,11111222,99999999' 
TABS,ioos:station:wmo:42051:1,2009-11-04T09:30:00Z,29.6350,-93.6417,2.0,233.6623222,10.32844616,-99999.0,'11111222,11111222,99999999' 
TABS,ioos:station:wmo:42051:1,2009-11-04T10:00:00Z,29.6350,-93.6417,2.0,238.6739739,7.059022595,-99999.0,'11133222,11111222,99999999' 
TABS,ioos:station:wmo:42051:1,2009-11-04T10:30:00Z,29.6350,-93.6417,2.0,217.4020966,9.038390343,-99999.0,'11133222,11111222,99999999' 
TABS,ioos:station:wmo:42051:1,2009-11-04T11:00:00Z,29.6350,-93.6417,2.0,211.2785481,8.108575707,-99999.0,'11133222,11111222,99999999' 
TABS,ioos:station:wmo:42051:1,2009-11-04T11:30:00Z,29.6350,-93.6417,2.0,239.2658941,7.690058517,-99999.0,'11133222,11111222,99999999' 
TABS,ioos:station:wmo:42051:1,2009-11-04T12:00:00Z,29.6350,-93.6417,2.0,249.8154475,9.738028548,-99999.0,'11133222,11111222,99999999' 
TABS,ioos:station:wmo:42051:1,2009-11-04T12:30:00Z,29.6350,-93.6417,2.0,236.0651118,9.09993956,-99999.0,'11133222,11111222,99999999' 
TABS,ioos:station:wmo:42051:1,2009-11-04T13:00:00Z,29.6350,-93.6417,2.0,246.745131,10.76450649,-99999.0,'11111222,11111222,99999999' 
TABS,ioos:station:wmo:42051:1,2009-11-04T13:30:00Z,29.6350,-93.6417,2.0,261.3855284,10.8827616,-99999.0,'11111222,11111222,99999999' 
TABS,ioos:station:wmo:42051:1,2009-11-04T14:00:00Z,29.6350,-93.6417,2.0,270.6023588,10.47057783,-99999.0,'11111222,11111222,99999999' 
TABS,ioos:station:wmo:42051:1,2009-11-04T14:30:00Z,29.6350,-93.6417,2.0,260.2709104,14.49850337,-99999.0,'11111222,11111222,99999999' 
TABS,ioos:station:wmo:42051:1,2009-11-04T15:00:00Z,29.6350,-93.6417,2.0,283.5328459,15.1711898,-99999.0,'11111222,11111222,99999999' 
TABS,ioos:station:wmo:42051:1,2009-11-04T15:30:00Z,29.6350,-93.6417,2.0,278.2937882,18.85720022,-99999.0,'11111222,11111222,99999999' 
TABS,ioos:station:wmo:42051:1,2009-11-04T16:00:00Z,29.6350,-93.6417,2.0,293.2646984,17.16570127,-99999.0,'11111222,11111222,99999999' 